{"data":{"norad_id":65529,"intl_designator":"2025-200K","name":"STARLINK-35077","alt_names":[],"object_type":"PAYLOAD","status":"ACTIVE","operator":null,"country":"US","launch_date":"2025-09-06","launch_site_code":"AFWTR","launch_vehicle":null,"mission":null,"orbit_class":"UNKNOWN","rcs_meters":null,"size_class":null,"mass_kg":null,"dimensions":null,"purposes":["comms"],"wikipedia_slug":null,"has_3d_model":false,"image_url":null,"decayed_at":null,"tle_current":{"epoch":"2026-05-25T03:33:39.982752Z","epoch_age_seconds":62184,"freshness":"FRESH","line1":"1 65529U 25200K   26145.14837943  .00003234  00000+0  22814-3 0  9994","line2":"2 65529  97.4498 214.7644 0001841 142.6325 217.5030 15.05647856 40633","mean_motion":15.05647856,"eccentricity":0.0001841,"inclination_deg":97.4498,"raan_deg":214.7644,"arg_perigee_deg":142.6325,"mean_anomaly_deg":217.503,"bstar":0.00022814,"rev_number":4063,"period_min":95.639893103929,"perigee_km":548.24234931846,"apogee_km":550.79311179025,"semimajor_km":6927.6547305544,"source":"CELESTRAK","updated_at":"2026-05-25T13:38:20.848018Z"}}}